| time (UTC) | temp C | wind direction | speed KPH | gust KPH | rain 1hr cm | rain 24hr cm | rain mn cm | humidity % | barometer mb |
| 20260504235158 | 19 | 52 | 4.8 | 4.8 | 0.00 | 0.00 | 0.00 | 36 | 1010.7 |
| 20260504234656 | 20 | 60 | 4.8 | 4.8 | 0.00 | 0.00 | 0.00 | 35 | 1010.6 |
| 20260504234152 | 18 | 24 | 4.8 | 14.5 | 0.00 | 0.00 | 0.00 | 38 | 1010.4 |
| 20260504233648 | 18 | 50 | 11.3 | 17.7 | 0.00 | 0.00 | 0.00 | 38 | 1010.6 |
| 20260504233144 | 19 | 44 | 1.6 | 1.6 | 0.00 | 0.00 | 0.00 | 37 | 1010.6 |
| 20260504232642 | 20 | 52 | 6.4 | 9.7 | 0.00 | 0.00 | 0.00 | 38 | 1010.6 |
| 20260504232139 | 20 | 59 | 4.8 | 4.8 | 0.00 | 0.00 | 0.00 | 36 | 1010.7 |
| 20260504231636 | 20 | 64 | 1.6 | 1.6 | 0.00 | 0.00 | 0.00 | 39 | 1010.4 |
| 20260504231132 | 20 | 62 | 0.0 | 1.6 | 0.00 | 0.00 | 0.00 | 37 | 1010.4 |
| 20260504230628 | 20 | 66 | 0.0 | 1.6 | 0.00 | 0.00 | 0.00 | 37 | 1010.6 |
| 20260504230127 | 20 | 24 | 4.8 | 4.8 | 0.00 | 0.00 | 0.00 | 39 | 1010.3 |
| 20260504225625 | 20 | 52 | 4.8 | 8.0 | 0.00 | 0.00 | 0.00 | 38 | 1010.0 |
| 20260504225121 | 20 | 74 | 1.6 | 3.2 | 0.00 | 0.00 | 0.00 | 34 | 1010.6 |
| 20260504224618 | 21 | 52 | 3.2 | 3.2 | 0.00 | 0.00 | 0.00 | 34 | 1010.4 |
| 20260504224115 | 21 | 57 | 1.6 | 3.2 | 0.00 | 0.00 | 0.00 | 32 | 1010.2 |
| 20260504223612 | 21 | 50 | 3.2 | 3.2 | 0.00 | 0.00 | 0.00 | 34 | 1010.6 |
| 20260504223107 | 21 | 222 | 3.2 | 4.8 | 0.00 | 0.00 | 0.00 | 34 | 1010.3 |
| 20260504222605 | 21 | 60 | 3.2 | 3.2 | 0.00 | 0.00 | 0.00 | 33 | 1010.3 |
| 20260504222101 | 21 | 57 | 4.8 | 4.8 | 0.00 | 0.00 | 0.00 | 33 | 1010.2 |
| 20260504221559 | 21 | 64 | 4.8 | 8.0 | 0.00 | 0.00 | 0.00 | 34 | 1010.6 |
| 20260504221055 | 21 | 63 | 4.8 | 4.8 | 0.00 | 0.00 | 0.00 | 35 | 1010.3 |
| 20260504220552 | 21 | 51 | 6.4 | 8.0 | 0.00 | 0.00 | 0.00 | 34 | 1010.4 |
| 20260504220049 | 21 | 47 | 3.2 | 3.2 | 0.00 | 0.00 | 0.00 | 34 | 1010.3 |
| 20260504215546 | 21 | 55 | 0.0 | 1.6 | 0.00 | 0.00 | 0.00 | 33 | 1010.3 |
| 20260504215043 | 22 | 42 | 3.2 | 3.2 | 0.00 | 0.00 | 0.00 | 33 | 1010.4 |
| 20260504214539 | 21 | 60 | 1.6 | 1.6 | 0.00 | 0.00 | 0.00 | 34 | 1010.4 |
| 20260504214035 | 21 | 337 | 3.2 | 4.8 | 0.00 | 0.00 | 0.00 | 34 | 1010.7 |
| 20260504213532 | 21 | 34 | 9.7 | 12.9 | 0.00 | 0.00 | 0.00 | 33 | 1010.8 |
| 20260504213029 | 21 | 57 | 3.2 | 4.8 | 0.00 | 0.00 | 0.00 | 34 | 1010.4 |
| 20260504212525 | 21 | 50 | 1.6 | 1.6 | 0.00 | 0.00 | 0.00 | 33 | 1010.6 |
| 20260504212023 | 21 | 34 | 3.2 | 3.2 | 0.00 | 0.00 | 0.00 | 34 | 1010.7 |
| 20260504211519 | 21 | 54 | 1.6 | 1.6 | 0.00 | 0.00 | 0.00 | 33 | 1010.6 |
| 20260504211017 | 21 | 69 | 3.2 | 3.2 | 0.00 | 0.00 | 0.00 | 35 | 1010.7 |
| 20260504210513 | 21 | 58 | 4.8 | 8.0 | 0.00 | 0.00 | 0.00 | 35 | 1010.6 |
| 20260504210010 | 21 | 59 | 3.2 | 4.8 | 0.00 | 0.00 | 0.00 | 34 | 1010.8 |
| 20260504205508 | 21 | 59 | 1.6 | 3.2 | 0.00 | 0.00 | 0.00 | 32 | 1011.0 |
| 20260504205006 | 20 | 39 | 6.4 | 8.0 | 0.00 | 0.00 | 0.00 | 36 | 1010.8 |
| 20260504204504 | 21 | 52 | 6.4 | 8.0 | 0.00 | 0.00 | 0.00 | 33 | 1011.1 |
| 20260504204002 | 21 | 31 | 4.8 | 4.8 | 0.00 | 0.00 | 0.00 | 34 | 1010.8 |
| 20260504203500 | 21 | 52 | 1.6 | 1.6 | 0.00 | 0.00 | 0.00 | 32 | 1011.2 |
| 20260504202956 | 20 | 41 | 3.2 | 4.8 | 0.00 | 0.00 | 0.00 | 38 | 1010.9 |
| 20260504202452 | 21 | 9 | 4.8 | 4.8 | 0.00 | 0.00 | 0.00 | 34 | 1011.0 |
| 20260504201949 | 20 | 7 | 8.0 | 11.3 | 0.00 | 0.00 | 0.00 | 34 | 1011.2 |
| 20260504201446 | 21 | 160 | 3.2 | 3.2 | 0.00 | 0.00 | 0.00 | 34 | 1011.0 |
| 20260504200944 | 21 | 65 | 3.2 | 4.8 | 0.00 | 0.00 | 0.00 | 32 | 1011.0 |
| 20260504200441 | 20 | 350 | 4.8 | 4.8 | 0.00 | 0.00 | 0.00 | 36 | 1010.8 |
| 20260504195937 | 20 | 47 | 3.2 | 3.2 | 0.00 | 0.00 | 0.00 | 34 | 1011.0 |
| 20260504195433 | 21 | 62 | 6.4 | 8.0 | 0.00 | 0.00 | 0.00 | 34 | 1011.0 |
| 20260504194930 | 20 | 38 | 4.8 | 8.0 | 0.00 | 0.00 | 0.00 | 35 | 1011.0 |
| 20260504194426 | 20 | 49 | 3.2 | 3.2 | 0.00 | 0.00 | 0.00 | 36 | 1011.2 |
| 20260504193922 | 20 | 69 | 1.6 | 3.2 | 0.00 | 0.00 | 0.00 | 35 | 1011.1 |
| 20260504193419 | 20 | 41 | 8.0 | 11.3 | 0.00 | 0.00 | 0.00 | 33 | 1011.3 |
| 20260504192918 | 20 | 31 | 4.8 | 8.0 | 0.00 | 0.00 | 0.00 | 35 | 1011.2 |
| 20260504192415 | 20 | 46 | 3.2 | 3.2 | 0.00 | 0.00 | 0.00 | 33 | 1011.3 |
| 20260504191914 | 20 | 49 | 4.8 | 4.8 | 0.00 | 0.00 | 0.00 | 37 | 1011.4 |
| 20260504191411 | 20 | 31 | 3.2 | 4.8 | 0.00 | 0.00 | 0.00 | 37 | 1011.4 |
| 20260504190906 | 20 | 65 | 4.8 | 4.8 | 0.00 | 0.00 | 0.00 | 34 | 1011.5 |
| 20260504190402 | 20 | 30 | 4.8 | 8.0 | 0.00 | 0.00 | 0.00 | 37 | 1011.5 |
| 20260504185859 | 20 | 43 | 1.6 | 3.2 | 0.00 | 0.00 | 0.00 | 37 | 1011.7 |
| 20260504185356 | 19 | 43 | 4.8 | 4.8 | 0.00 | 0.00 | 0.00 | 36 | 1011.7 |
| 20260504184852 | 19 | 24 | 3.2 | 3.2 | 0.00 | 0.00 | 0.00 | 36 | 1012.0 |
| 20260504184348 | 19 | 45 | 3.2 | 3.2 | 0.00 | 0.00 | 0.00 | 34 | 1011.9 |
| 20260504183844 | 20 | 70 | 3.2 | 3.2 | 0.00 | 0.00 | 0.00 | 34 | 1012.1 |
| 20260504183342 | 19 | 24 | 1.6 | 3.2 | 0.00 | 0.00 | 0.00 | 35 | 1012.0 |
| 20260504182839 | 19 | 50 | 8.0 | 12.9 | 0.00 | 0.00 | 0.00 | 36 | 1012.1 |
| 20260504182337 | 18 | 37 | 1.6 | 1.6 | 0.00 | 0.00 | 0.00 | 36 | 1012.0 |
| 20260504181833 | 18 | 62 | 6.4 | 9.7 | 0.00 | 0.00 | 0.00 | 35 | 1012.2 |
| 20260504181331 | 18 | 61 | 4.8 | 4.8 | 0.00 | 0.00 | 0.00 | 40 | 1012.3 |
| 20260504180830 | 18 | 71 | 3.2 | 4.8 | 0.00 | 0.00 | 0.00 | 40 | 1012.2 |
| 20260504180328 | 18 | 66 | 4.8 | 8.0 | 0.00 | 0.00 | 0.00 | 38 | 1012.1 |
| 20260504175825 | 17 | 57 | 6.4 | 8.0 | 0.00 | 0.00 | 0.00 | 39 | 1012.3 |
| 20260504175322 | 17 | 45 | 4.8 | 9.7 | 0.00 | 0.00 | 0.00 | 39 | 1012.4 |
| 20260504174820 | 17 | 59 | 4.8 | 8.0 | 0.00 | 0.00 | 0.00 | 38 | 1012.4 |
| 20260504174317 | 17 | 50 | 6.4 | 8.0 | 0.00 | 0.00 | 0.00 | 39 | 1012.2 |
| 20260504173814 | 17 | 29 | 9.7 | 12.9 | 0.00 | 0.00 | 0.00 | 39 | 1012.3 |
| 20260504173311 | 17 | 61 | 4.8 | 9.7 | 0.00 | 0.00 | 0.00 | 39 | 1012.4 |
| 20260504172808 | 17 | 65 | 8.0 | 11.3 | 0.00 | 0.00 | 0.00 | 38 | 1012.4 |
| 20260504172305 | 17 | 56 | 9.7 | 12.9 | 0.00 | 0.00 | 0.00 | 39 | 1012.6 |
| 20260504171800 | 16 | 25 | 9.7 | 12.9 | 0.00 | 0.00 | 0.00 | 39 | 1012.4 |
| 20260504171258 | 16 | 61 | 4.8 | 8.0 | 0.00 | 0.00 | 0.00 | 41 | 1012.6 |
| 20260504170755 | 17 | 22 | 9.7 | 14.5 | 0.00 | 0.00 | 0.00 | 39 | 1012.3 |
| 20260504170252 | 16 | 62 | 8.0 | 12.9 | 0.00 | 0.00 | 0.00 | 41 | 1012.8 |
| 20260504160210 | 15 | 37 | 8.0 | 11.3 | 0.00 | 0.00 | 0.00 | 43 | 1013.2 |
| 20260504151138 | 13 | 43 | 6.4 | 8.0 | 0.00 | 0.00 | 0.00 | 44 | 1013.5 |
| 20260504150635 | 13 | 63 | 9.7 | 12.9 | 0.00 | 0.00 | 0.00 | 43 | 1013.1 |
| 20260504150132 | 13 | 40 | 8.0 | 9.7 | 0.00 | 0.00 | 0.00 | 43 | 1013.1 |
| 20260504141101 | 12 | 21 | 8.0 | 11.3 | 0.00 | 0.00 | 0.00 | 47 | 1012.8 |
| 20260504140557 | 12 | 42 | 6.4 | 9.7 | 0.00 | 0.00 | 0.00 | 47 | 1012.6 |
| 20260504130521 | 10 | 55 | 3.2 | 3.2 | 0.00 | 0.00 | 0.00 | 55 | 1012.1 |
| 20260504110409 | 6 | 66 | 0.0 | 0.0 | 0.00 | 0.00 | 0.00 | 83 | 1011.2 |
| 20260504100326 | 5 | 65 | 0.0 | 0.0 | 0.00 | 0.00 | 0.00 | 87 | 1010.2 |
| 20260504081720 | 6 | 64 | 0.0 | 0.0 | 0.00 | 0.00 | 0.00 | 83 | 1010.1 |
| 20260504081216 | 7 | 63 | 0.0 | 0.0 | 0.00 | 0.00 | 0.00 | 82 | 1010.3 |
| 20260504080712 | 8 | 63 | 0.0 | 0.0 | 0.00 | 0.00 | 0.00 | 77 | 1010.1 |
| 20260504080209 | 8 | 63 | 0.0 | 0.0 | 0.00 | 0.00 | 0.00 | 77 | 1010.1 |
| 20260504070137 | 7 | 60 | 0.0 | 0.0 | 0.00 | 0.00 | 0.00 | 76 | 1009.9 |
| 20260504050525 | 10 | 65 | 0.0 | 0.0 | 0.00 | 0.00 | 0.00 | 66 | 1009.7 |
| 20260504050022 | 11 | 59 | 0.0 | 0.0 | 0.00 | 0.00 | 0.00 | 64 | 1009.6 |
| 20260504045519 | 12 | 62 | 0.0 | 0.0 | 0.00 | 0.00 | 0.00 | 61 | 1009.7 |
| 20260504045014 | 12 | 64 | 0.0 | 0.0 | 0.00 | 0.00 | 0.00 | 58 | 1009.6 |
| 20260504044512 | 12 | 65 | 0.0 | 0.0 | 0.00 | 0.00 | 0.00 | 59 | 1009.6 |
| 20260504044009 | 13 | 65 | 0.0 | 0.0 | 0.00 | 0.00 | 0.00 | 59 | 1009.6 |
| 20260504043506 | 13 | 75 | 0.0 | 1.6 | 0.00 | 0.00 | 0.00 | 56 | 1009.4 |
| 20260504043003 | 13 | 66 | 0.0 | 0.0 | 0.00 | 0.00 | 0.00 | 55 | 1009.5 |
| 20260504042500 | 13 | 62 | 0.0 | 0.0 | 0.00 | 0.00 | 0.00 | 57 | 1009.5 |
| 20260504041957 | 13 | 60 | 1.6 | 3.2 | 0.00 | 0.00 | 0.00 | 56 | 1009.2 |
| 20260504041453 | 14 | 69 | 0.0 | 1.6 | 0.00 | 0.00 | 0.00 | 53 | 1009.5 |
| 20260504040948 | 15 | 65 | 0.0 | 0.0 | 0.00 | 0.00 | 0.00 | 51 | 1009.2 |
| 20260504040447 | 15 | 62 | 0.0 | 0.0 | 0.00 | 0.00 | 0.00 | 49 | 1009.2 |
| 20260504035942 | 15 | 125 | 1.6 | 3.2 | 0.00 | 0.00 | 0.00 | 48 | 1008.9 |
| 20260504035440 | 15 | 63 | 0.0 | 1.6 | 0.00 | 0.00 | 0.00 | 47 | 1009.0 |
| 20260504034937 | 15 | 42 | 3.2 | 3.2 | 0.00 | 0.00 | 0.00 | 48 | 1009.0 |
| 20260504034434 | 15 | 63 | 1.6 | 1.6 | 0.00 | 0.00 | 0.00 | 50 | 1008.9 |
| 20260504033931 | 15 | 63 | 0.0 | 0.0 | 0.00 | 0.00 | 0.00 | 54 | 1009.0 |
| 20260504033429 | 16 | 64 | 0.0 | 0.0 | 0.00 | 0.00 | 0.00 | 47 | 1008.8 |
| 20260504032926 | 15 | 61 | 1.6 | 1.6 | 0.00 | 0.00 | 0.00 | 53 | 1008.7 |
| 20260504032422 | 15 | 61 | 0.0 | 0.0 | 0.00 | 0.00 | 0.00 | 54 | 1008.8 |
| 20260504031919 | 16 | 60 | 0.0 | 0.0 | 0.00 | 0.00 | 0.00 | 48 | 1008.6 |
| 20260504031417 | 16 | 64 | 0.0 | 0.0 | 0.00 | 0.00 | 0.00 | 49 | 1008.7 |
| 20260504030913 | 16 | 61 | 0.0 | 0.0 | 0.00 | 0.00 | 0.00 | 47 | 1008.7 |
| 20260504030410 | 17 | 63 | 0.0 | 0.0 | 0.00 | 0.00 | 0.00 | 49 | 1008.7 |
| 20260504025901 | 17 | 61 | 0.0 | 0.0 | 0.00 | 0.00 | 0.00 | 47 | 1008.7 |
| 20260504025358 | 18 | 61 | 0.0 | 0.0 | 0.00 | 0.00 | 0.00 | 48 | 1008.5 |
| 20260504024855 | 18 | 60 | 0.0 | 0.0 | 0.00 | 0.00 | 0.00 | 45 | 1008.5 |
| 20260504024351 | 18 | 76 | 1.6 | 1.6 | 0.00 | 0.00 | 0.00 | 43 | 1008.6 |
| 20260504023849 | 19 | 61 | 0.0 | 0.0 | 0.00 | 0.00 | 0.00 | 42 | 1008.5 |
| 20260504023345 | 20 | 61 | 0.0 | 0.0 | 0.00 | 0.00 | 0.00 | 42 | 1008.6 |
| 20260504022840 | 20 | 65 | 0.0 | 0.0 | 0.00 | 0.00 | 0.00 | 43 | 1008.3 |
| 20260504022337 | 20 | 62 | 0.0 | 0.0 | 0.00 | 0.00 | 0.00 | 39 | 1008.5 |
| 20260504021834 | 20 | 81 | 1.6 | 3.2 | 0.00 | 0.00 | 0.00 | 43 | 1008.6 |
| 20260504021331 | 21 | 62 | 0.0 | 0.0 | 0.00 | 0.00 | 0.00 | 40 | 1008.6 |
| 20260504020828 | 21 | 103 | 1.6 | 3.2 | 0.00 | 0.00 | 0.00 | 41 | 1008.5 |
| 20260504020325 | 21 | 63 | 1.6 | 1.6 | 0.00 | 0.00 | 0.00 | 43 | 1008.3 |
| 20260504015821 | 20 | 34 | 1.6 | 1.6 | 0.00 | 0.00 | 0.00 | 38 | 1008.5 |
| 20260504015317 | 21 | 61 | 1.6 | 1.6 | 0.00 | 0.00 | 0.00 | 41 | 1008.4 |
| 20260504014814 | 21 | 52 | 3.2 | 3.2 | 0.00 | 0.00 | 0.00 | 38 | 1008.5 |
| 20260504014310 | 21 | 59 | 1.6 | 3.2 | 0.00 | 0.00 | 0.00 | 38 | 1008.5 |
| 20260504013808 | 22 | 50 | 3.2 | 4.8 | 0.00 | 0.00 | 0.00 | 36 | 1008.4 |
| 20260504013305 | 22 | 63 | 1.6 | 1.6 | 0.00 | 0.00 | 0.00 | 38 | 1008.7 |
| 20260504012802 | 22 | 42 | 4.8 | 4.8 | 0.00 | 0.00 | 0.00 | 36 | 1008.6 |
| 20260504012300 | 22 | 69 | 3.2 | 3.2 | 0.00 | 0.00 | 0.00 | 39 | 1008.7 |
| 20260504011756 | 23 | 47 | 1.6 | 1.6 | 0.00 | 0.00 | 0.00 | 34 | 1008.7 |
| 20260504011253 | 23 | 49 | 1.6 | 3.2 | 0.00 | 0.00 | 0.00 | 34 | 1008.6 |
| 20260504010749 | 23 | 40 | 3.2 | 3.2 | 0.00 | 0.00 | 0.00 | 32 | 1008.6 |
| 20260504010244 | 23 | 49 | 4.8 | 8.0 | 0.00 | 0.00 | 0.00 | 32 | 1008.7 |
| 20260504005742 | 23 | 59 | 4.8 | 4.8 | 0.00 | 0.00 | 0.00 | 36 | 1008.8 |
| 20260504005239 | 23 | 49 | 4.8 | 8.0 | 0.00 | 0.00 | 0.00 | 31 | 1008.8 |
| 20260504004736 | 23 | 28 | 8.0 | 8.0 | 0.00 | 0.00 | 0.00 | 32 | 1008.5 |
| 20260504004233 | 23 | 36 | 3.2 | 3.2 | 0.00 | 0.00 | 0.00 | 29 | 1008.7 |
| 20260504003730 | 23 | 17 | 4.8 | 8.0 | 0.00 | 0.00 | 0.00 | 30 | 1008.7 |
| 20260504003227 | 24 | 15 | 4.8 | 4.8 | 0.00 | 0.00 | 0.00 | 31 | 1008.8 |
| 20260504002723 | 25 | 56 | 4.8 | 4.8 | 0.00 | 0.00 | 0.00 | 28 | 1008.8 |
| 20260504002220 | 24 | 61 | 0.0 | 0.0 | 0.00 | 0.00 | 0.00 | 28 | 1008.9 |
| 20260504001718 | 24 | 48 | 3.2 | 3.2 | 0.00 | 0.00 | 0.00 | 30 | 1008.9 |
| 20260504001215 | 24 | 52 | 3.2 | 3.2 | 0.00 | 0.00 | 0.00 | 28 | 1008.8 |
| 20260504000712 | 25 | 56 | 3.2 | 3.2 | 0.00 | 0.00 | 0.00 | 29 | 1008.8 |
| 20260504000208 | 25 | 93 | 4.8 | 4.8 | 0.00 | 0.00 | 0.00 | 29 | 1009.0 |
| 20260503235707 | 25 | 69 | 0.0 | 1.6 | 0.00 | 0.00 | 0.00 | 31 | 1008.9 |